{"data":{"norad_id":27612,"epoch":"2026-09-19T17:44:31.566336Z","epoch_age_seconds":80166,"freshness":"FRESH","line1":"1 27612U 02058H   26262.73925424  .00000623  00000+0  87977-4 0  9999","line2":"2 27612  64.5556  27.9740 0047176 233.6294 126.0457 14.85609564281671","mean_motion":14.85609564,"eccentricity":0.0047176,"inclination_deg":64.5556,"raan_deg":27.974,"arg_perigee_deg":233.6294,"mean_anomaly_deg":126.0457,"bstar":8.7977e-5,"rev_number":28167,"period_min":96.929909102281,"perigee_km":578.69807810182,"apogee_km":644.64833536438,"semimajor_km":6989.8102067331,"source":"CELESTRAK","updated_at":"2026-09-20T09:00:13.584727Z"}}